Cody, WY

5:58 AM MDT on July 23, 2017 (GMT -0600)
Yellowstone Regional

Weather History for KCOD - January, 2012

Change the Weather History Date:

Saturday, January 28, 2012

  Actual Average Record
Temperature  
Mean Temperature 30 °F -  
Max Temperature 35 °F 36 °F 60 °F (1954)
Min Temperature 26 °F 14 °F -30 °F (1916)
Degree Days  
Heating Degree Days 34    
Moisture  
Dew Point 2 °F    
Average Humidity 29    
Maximum Humidity 35    
Minimum Humidity 23    
Precipitation  
Precipitation 0.00 in - - ()
Sea Level Pressure  
Sea Level Pressure 30.16 in    
Wind  
Wind Speed 9 mph (WNW)    
Max Wind Speed 23 mph    
Max Gust Speed 33 mph    
Visibility 10 miles    
Events      
Averages and records for this station are not official NWS values.
T = Trace of Precipitation, MM = Missing Value Source: NWS Daily Summary

Daily Weather History Graph

Daily Weather History Graph

Search for Another Location

Airport or City:

Trip Planner

Search our weather history database for the weather conditions in past years. The results will help you decide how hot, cold, wet, or windy it might be!

Date:

Astronomy

Jan. 28, 2012 Rise Set
Actual Time 7:39 AM MST 5:19 PM MST
Civil Twilight 7:08 AM MST 5:50 PM MST
Nautical Twilight 6:32 AM MST 6:25 PM MST
Astronomical Twilight 5:58 AM MST 6:59 PM MST
Moon 9:47 AM MST (1/28) 11:27 PM MST (1/28)
Length of Visible Light 10h 42m
Length of Day
9h 39m
Waxing Crescent, 28% of the Moon is Illuminated
Jan 28
Waxing Crescent
Jan 30
First Quarter
Feb 7
Full
Feb 14
Last Quarter
Feb 21
New

Hourly Weather History & Observations

Time (MST) Temp. Windchill Dew Point Humidity Pressure Visibility Wind Dir Wind Speed Gust Speed Precip Events Conditions
12:15 AM 26.6 °F 21.2 °F -0.4 °F 31% 30.17 in 10.0 mi West 4.6 mph - N/A   Clear
12:35 AM 26.6 °F 18.2 °F -0.4 °F 31% 30.17 in 10.0 mi WNW 8.1 mph - N/A   Clear
12:55 AM 26.6 °F 21.2 °F -0.4 °F 31% 30.16 in 10.0 mi WSW 4.6 mph - N/A   Clear
1:15 AM 26.6 °F 21.2 °F 1.4 °F 34% 30.15 in 10.0 mi WNW 4.6 mph - N/A   Clear
1:35 AM 26.6 °F 16.2 °F 1.4 °F 34% 30.15 in 10.0 mi NW 11.5 mph - N/A   Clear
1:55 AM 26.6 °F 16.2 °F 1.4 °F 34% 30.15 in 10.0 mi West 11.5 mph - N/A   Clear
2:15 AM 26.6 °F 15.7 °F 1.4 °F 34% 30.15 in 10.0 mi NW 12.7 mph 23.0 mph N/A   Clear
2:35 AM 26.6 °F 20.0 °F 1.4 °F 34% 30.15 in 10.0 mi NW 5.8 mph 17.3 mph N/A   Clear
2:55 AM 26.6 °F 15.2 °F -0.4 °F 31% 30.16 in 10.0 mi NNW 13.8 mph 19.6 mph N/A   Clear
3:15 AM 26.6 °F 17.5 °F -0.4 °F 31% 30.16 in 10.0 mi NW 9.2 mph 16.1 mph N/A   Clear
3:35 AM 26.6 °F 16.8 °F 1.4 °F 34% 30.16 in 10.0 mi NW 10.4 mph 17.3 mph N/A   Clear
3:55 AM 26.6 °F 20.0 °F -0.4 °F 31% 30.17 in 10.0 mi NW 5.8 mph - N/A   Clear
4:15 AM 26.6 °F 21.2 °F -0.4 °F 31% 30.18 in 10.0 mi NW 4.6 mph - N/A   Clear
4:35 AM 26.6 °F 20.0 °F 1.4 °F 34% 30.17 in 10.0 mi NW 5.8 mph - N/A   Clear
4:55 AM 26.6 °F 18.2 °F 1.4 °F 34% 30.17 in 10.0 mi WNW 8.1 mph 17.3 mph N/A   Clear
5:15 AM 26.6 °F 18.2 °F -0.4 °F 31% 30.15 in 10.0 mi WNW 8.1 mph 17.3 mph N/A   Clear
5:35 AM 26.6 °F 15.2 °F -0.4 °F 31% 30.15 in 10.0 mi WNW 13.8 mph 19.6 mph N/A   Clear
5:55 AM 26.6 °F 17.5 °F 1.4 °F 34% 30.16 in 10.0 mi West 9.2 mph 17.3 mph N/A   Partly Cloudy
6:35 AM 26.6 °F 21.2 °F 1.4 °F 34% 30.17 in 10.0 mi WNW 4.6 mph - N/A   Clear
6:55 AM 26.6 °F 16.8 °F 1.4 °F 34% 30.17 in 10.0 mi WNW 10.4 mph - N/A   Clear
7:15 AM 26.6 °F 20.0 °F -0.4 °F 31% 30.17 in 10.0 mi WNW 5.8 mph - N/A   Partly Cloudy
7:35 AM 28.4 °F 18.5 °F -0.4 °F 29% 30.17 in 10.0 mi West 11.5 mph 19.6 mph N/A   Partly Cloudy
7:55 AM 28.4 °F 20.4 °F -0.4 °F 29% 30.18 in 10.0 mi WNW 8.1 mph - N/A   Clear
8:15 AM 28.4 °F 22.2 °F -0.4 °F 29% 30.18 in 10.0 mi West 5.8 mph - N/A   Clear
8:35 AM 28.4 °F 20.4 °F -0.4 °F 29% 30.18 in 10.0 mi WNW 8.1 mph 17.3 mph N/A   Partly Cloudy
9:15 AM 28.4 °F 19.1 °F 1.4 °F 31% 30.19 in 10.0 mi NW 10.4 mph 19.6 mph N/A   Clear
9:35 AM 30.2 °F 18.5 °F 1.4 °F 29% 30.18 in 10.0 mi WNW 17.3 mph 24.2 mph N/A   Scattered Clouds
9:55 AM 30.2 °F 19.3 °F 1.4 °F 29% 30.18 in 10.0 mi West 15.0 mph 26.5 mph N/A   Overcast
10:15 AM 30.2 °F 17.8 °F 1.4 °F 29% 30.19 in 10.0 mi West 19.6 mph 26.5 mph N/A   Overcast
10:35 AM 30.2 °F 19.8 °F -0.4 °F 27% 30.20 in 10.0 mi West 13.8 mph 28.8 mph N/A   Overcast
10:55 AM 32.0 °F 26.4 °F 1.4 °F 27% 30.20 in 10.0 mi NNW 5.8 mph 17.3 mph N/A   Overcast
11:35 AM 33.8 °F 27.0 °F -0.4 °F 23% 30.19 in 10.0 mi NNE 8.1 mph - N/A   Overcast
11:55 AM 33.8 °F 26.4 °F -0.4 °F 23% 30.18 in 10.0 mi NNE 9.2 mph - N/A   Overcast
12:15 PM 33.8 °F 25.3 °F 1.4 °F 25% 30.18 in 10.0 mi NE 11.5 mph - N/A   Mostly Cloudy
12:35 PM 35.6 °F 27.5 °F 1.4 °F 24% 30.17 in 10.0 mi NW 11.5 mph 21.9 mph N/A   Mostly Cloudy
12:56 PM 35.6 °F 28.6 °F 1.4 °F 24% 30.17 in 10.0 mi North 9.2 mph 16.1 mph N/A   Mostly Cloudy
1:15 PM 35.6 °F 32.8 °F 1.4 °F 24% 30.17 in 10.0 mi North 3.5 mph - N/A   Mostly Cloudy
1:35 PM 35.6 °F 25.5 °F 3.2 °F 26% 30.16 in 10.0 mi West 17.3 mph 26.5 mph N/A   Mostly Cloudy
2:35 PM 35.6 °F 26.2 °F 1.4 °F 24% 30.15 in 10.0 mi NW 15.0 mph 26.5 mph N/A   Scattered Clouds
2:55 PM 35.6 °F - 1.4 °F 24% 30.15 in 10.0 mi Calm Calm - N/A   Scattered Clouds
3:15 PM 35.6 °F 29.9 °F 3.2 °F 26% 30.15 in 10.0 mi SW 6.9 mph - N/A   Mostly Cloudy
3:35 PM 35.6 °F 25.5 °F 3.2 °F 26% 30.13 in 10.0 mi WNW 17.3 mph 23.0 mph N/A   Mostly Cloudy
3:55 PM 35.6 °F 25.5 °F 1.4 °F 24% 30.13 in 10.0 mi NW 17.3 mph 29.9 mph N/A   Partly Cloudy
4:15 PM 35.6 °F 25.5 °F 3.2 °F 26% 30.13 in 10.0 mi WNW 17.3 mph 33.4 mph N/A   Clear
4:35 PM 35.6 °F 24.5 °F 1.4 °F 24% 30.11 in 10.0 mi WNW 20.7 mph 27.6 mph N/A   Clear
4:55 PM 35.6 °F 24.0 °F 1.4 °F 24% 30.11 in 10.0 mi WNW 23.0 mph 32.2 mph N/A   Clear
5:15 PM 35.6 °F 26.2 °F 3.2 °F 26% 30.12 in 10.0 mi WNW 15.0 mph 25.3 mph N/A   Clear
5:35 PM 33.8 °F 26.4 °F 3.2 °F 28% 30.12 in 10.0 mi WNW 9.2 mph - N/A   Clear
5:55 PM 33.8 °F 24.8 °F 3.2 °F 28% 30.12 in 10.0 mi WNW 12.7 mph 21.9 mph N/A   Partly Cloudy
6:15 PM 33.8 °F 27.0 °F 3.2 °F 28% 30.12 in 10.0 mi NW 8.1 mph - N/A   Clear
6:35 PM 33.8 °F 29.6 °F 3.2 °F 28% 30.11 in 10.0 mi North 4.6 mph - N/A   Clear
6:55 PM 32.0 °F 28.7 °F 3.2 °F 30% 30.11 in 10.0 mi ESE 3.5 mph - N/A   Clear
7:15 PM 32.0 °F 24.2 °F 5.0 °F 32% 30.11 in 10.0 mi WNW 9.2 mph - N/A   Clear
7:35 PM 33.8 °F 27.7 °F 6.8 °F 32% 30.12 in 10.0 mi NW 6.9 mph 20.7 mph N/A   Scattered Clouds
7:55 PM 33.8 °F 25.8 °F 8.6 °F 35% 30.12 in 10.0 mi West 10.4 mph 16.1 mph N/A   Mostly Cloudy
8:15 PM 35.6 °F 27.5 °F 8.6 °F 33% 30.11 in 10.0 mi WNW 11.5 mph 20.7 mph N/A   Mostly Cloudy
8:35 PM 35.6 °F 25.9 °F 8.6 °F 33% 30.11 in 10.0 mi WNW 16.1 mph 24.2 mph N/A   Mostly Cloudy
8:55 PM 35.6 °F 25.2 °F 10.4 °F 35% 30.11 in 10.0 mi NW 18.4 mph 27.6 mph N/A   Mostly Cloudy
9:15 PM 35.6 °F 21.7 °F 10.4 °F 35% 30.09 in 10.0 mi West 34.5 mph 41.4 mph N/A   Overcast
9:35 PM 33.8 °F 22.2 °F 10.4 °F 38% 30.10 in 10.0 mi West 20.7 mph 39.1 mph N/A   Overcast
9:55 PM 33.8 °F 21.9 °F 12.2 °F 41% 30.10 in 10.0 mi West 21.9 mph 35.7 mph N/A   Overcast
10:15 PM 35.6 °F 24.0 °F 12.2 °F 38% 30.10 in 10.0 mi WSW 23.0 mph 36.8 mph N/A   Overcast
10:35 PM 33.8 °F 22.5 °F 14.0 °F 44% 30.10 in 10.0 mi WSW 19.6 mph 39.1 mph N/A   Overcast
10:55 PM 35.6 °F 25.2 °F 15.8 °F 44% 30.10 in 10.0 mi WSW 18.4 mph 38.0 mph N/A   Overcast
11:15 PM 35.6 °F 28.0 °F 15.8 °F 44% 30.10 in 10.0 mi West 10.4 mph 41.4 mph N/A   Overcast
11:35 PM 35.6 °F 23.4 °F 15.8 °F 44% 30.10 in 10.0 mi West 25.3 mph 42.6 mph N/A   Overcast
11:55 PM 35.6 °F 23.7 °F 15.8 °F 44% 30.09 in 10.0 mi WSW 24.2 mph 38.0 mph N/A   Overcast